Year,Month,Day,Hour,Minute,Value (Times are PST for windspeed in km/hr)
2010,11,14,00,00,4.20
2010,11,14,00,01,3.40
2010,11,14,00,02,5.80
2010,11,14,00,03,4.70
2010,11,14,00,04,4.60
2010,11,14,00,05,4.50
2010,11,14,00,06,2.80
2010,11,14,00,07,4.80
2010,11,14,00,08,3.00
2010,11,14,00,09,3.70
2010,11,14,00,10,4.80
2010,11,14,00,11,4.00
2010,11,14,00,12,3.40
2010,11,14,00,13,4.30
2010,11,14,00,14,4.10
2010,11,14,00,15,5.90
2010,11,14,00,16,4.40
2010,11,14,00,17,4.30
2010,11,14,00,18,3.10
2010,11,14,00,19,1.80
2010,11,14,00,20,0.10
2010,11,14,00,21,0.50
2010,11,14,00,22,2.60
2010,11,14,00,23,2.80
2010,11,14,00,24,2.20
2010,11,14,00,25,2.00
2010,11,14,00,26,3.60
2010,11,14,00,27,2.30
2010,11,14,00,28,2.10
2010,11,14,00,29,2.30
2010,11,14,00,30,2.60
2010,11,14,00,31,2.90
2010,11,14,00,32,3.10
2010,11,14,00,33,4.00
2010,11,14,00,34,4.60
2010,11,14,00,35,3.90
2010,11,14,00,36,3.30
2010,11,14,00,37,3.10
2010,11,14,00,38,3.20
2010,11,14,00,39,1.50
2010,11,14,00,40,3.90
2010,11,14,00,41,4.20
2010,11,14,00,42,2.20
2010,11,14,00,43,1.00
2010,11,14,00,44,0.10
2010,11,14,00,45,0.00
2010,11,14,00,46,0.00
2010,11,14,00,47,0.30
2010,11,14,00,48,0.50
2010,11,14,00,49,2.70
2010,11,14,00,50,1.90
2010,11,14,00,51,2.40
2010,11,14,00,52,3.00
2010,11,14,00,53,3.40
2010,11,14,00,54,2.00
2010,11,14,00,55,3.20
2010,11,14,00,56,3.80
2010,11,14,00,57,4.20
2010,11,14,00,58,4.10
2010,11,14,00,59,4.30
2010,11,14,01,00,4.60
2010,11,14,01,01,4.10
2010,11,14,01,02,3.80
2010,11,14,01,03,4.30
2010,11,14,01,04,3.70
2010,11,14,01,05,2.30
2010,11,14,01,06,2.40
2010,11,14,01,07,1.10
2010,11,14,01,08,1.00
2010,11,14,01,09,1.90
2010,11,14,01,10,2.50
2010,11,14,01,11,2.40
2010,11,14,01,12,1.90
2010,11,14,01,13,2.70
2010,11,14,01,14,2.70
2010,11,14,01,15,2.30
2010,11,14,01,16,2.60
2010,11,14,01,17,1.30
2010,11,14,01,18,0.60
2010,11,14,01,19,0.00
2010,11,14,01,20,2.10
2010,11,14,01,21,3.10
2010,11,14,01,22,4.10
2010,11,14,01,23,4.50
2010,11,14,01,24,4.80
2010,11,14,01,25,4.90
2010,11,14,01,26,2.80
2010,11,14,01,27,3.10
2010,11,14,01,28,4.30
2010,11,14,01,29,2.70
2010,11,14,01,30,2.40
2010,11,14,01,31,0.70
2010,11,14,01,32,0.20
2010,11,14,01,33,0.00
2010,11,14,01,34,0.00
2010,11,14,01,35,1.70
2010,11,14,01,36,1.10
2010,11,14,01,37,1.60
2010,11,14,01,38,0.80
2010,11,14,01,39,0.00
2010,11,14,01,40,0.00
2010,11,14,01,41,0.00
2010,11,14,01,42,0.00
2010,11,14,01,43,0.00
2010,11,14,01,44,0.60
2010,11,14,01,45,0.00
2010,11,14,01,46,0.00
2010,11,14,01,47,0.00
2010,11,14,01,48,0.00
2010,11,14,01,49,0.00
2010,11,14,01,50,0.00
2010,11,14,01,51,2.00
2010,11,14,01,52,3.70
2010,11,14,01,53,5.60
2010,11,14,01,54,6.80
2010,11,14,01,55,7.60
2010,11,14,01,56,7.00
2010,11,14,01,57,8.20
2010,11,14,01,58,10.80
2010,11,14,01,59,11.90
2010,11,14,02,00,6.70
2010,11,14,02,01,5.20
2010,11,14,02,02,5.00
2010,11,14,02,03,7.40
2010,11,14,02,04,4.50
2010,11,14,02,05,3.80
2010,11,14,02,06,3.30
2010,11,14,02,07,4.30
2010,11,14,02,08,4.30
2010,11,14,02,09,2.70
2010,11,14,02,10,6.60
2010,11,14,02,11,6.10
2010,11,14,02,12,5.30
2010,11,14,02,13,5.20
2010,11,14,02,14,4.60
2010,11,14,02,15,4.60
2010,11,14,02,16,6.90
2010,11,14,02,17,7.70
2010,11,14,02,18,8.60
2010,11,14,02,19,5.70
2010,11,14,02,20,5.90
2010,11,14,02,21,9.10
2010,11,14,02,22,5.50
2010,11,14,02,23,6.30
2010,11,14,02,24,6.50
2010,11,14,02,25,5.50
2010,11,14,02,26,3.70
2010,11,14,02,27,4.30
2010,11,14,02,28,3.20
2010,11,14,02,29,3.40
2010,11,14,02,30,3.40
2010,11,14,02,31,2.00
2010,11,14,02,32,1.80
2010,11,14,02,33,4.00
2010,11,14,02,34,4.80
2010,11,14,02,35,5.20
2010,11,14,02,36,5.20
2010,11,14,02,37,6.90
2010,11,14,02,38,5.10
2010,11,14,02,39,4.90
2010,11,14,02,40,5.40
2010,11,14,02,41,4.40
2010,11,14,02,42,4.40
2010,11,14,02,43,4.80
2010,11,14,02,44,4.90
2010,11,14,02,45,4.10
2010,11,14,02,46,4.30
2010,11,14,02,47,4.10
2010,11,14,02,48,3.40
2010,11,14,02,49,4.70
2010,11,14,02,50,3.90
2010,11,14,02,51,3.80
2010,11,14,02,52,4.20
2010,11,14,02,53,4.00
2010,11,14,02,54,5.00
2010,11,14,02,55,4.40
2010,11,14,02,56,5.40
2010,11,14,02,57,5.20
2010,11,14,02,58,4.50
2010,11,14,02,59,4.40
2010,11,14,03,00,5.70
2010,11,14,03,01,5.40
2010,11,14,03,02,3.40
2010,11,14,03,03,3.80
2010,11,14,03,04,3.10
2010,11,14,03,05,2.50
2010,11,14,03,06,2.60
2010,11,14,03,07,3.80
2010,11,14,03,08,3.90
2010,11,14,03,09,3.70
2010,11,14,03,10,4.80
2010,11,14,03,11,4.00
2010,11,14,03,12,5.00
2010,11,14,03,13,3.60
2010,11,14,03,14,3.40
2010,11,14,03,15,3.00
2010,11,14,03,16,3.10
2010,11,14,03,17,2.30
2010,11,14,03,18,2.50
2010,11,14,03,19,3.60
2010,11,14,03,20,3.80
2010,11,14,03,21,3.10
2010,11,14,03,22,5.10
2010,11,14,03,23,4.30
2010,11,14,03,24,5.40
2010,11,14,03,25,6.40
2010,11,14,03,26,6.20
2010,11,14,03,27,6.40
2010,11,14,03,28,6.40
2010,11,14,03,29,5.30
2010,11,14,03,30,6.30
2010,11,14,03,31,5.80
2010,11,14,03,32,5.70
2010,11,14,03,33,4.30
2010,11,14,03,34,3.90
2010,11,14,03,35,5.00
2010,11,14,03,36,5.60
2010,11,14,03,37,5.00
2010,11,14,03,38,4.50
2010,11,14,03,39,4.00
2010,11,14,03,40,3.10
2010,11,14,03,41,3.10
2010,11,14,03,42,2.60
2010,11,14,03,43,4.10
2010,11,14,03,44,2.60
2010,11,14,03,45,3.10
2010,11,14,03,46,2.80
2010,11,14,03,47,3.10
2010,11,14,03,48,2.80
2010,11,14,03,49,3.70
2010,11,14,03,50,3.50
2010,11,14,03,51,4.30
2010,11,14,03,52,5.00
2010,11,14,03,53,4.40
2010,11,14,03,54,4.50
2010,11,14,03,55,4.70
2010,11,14,03,56,4.20
2010,11,14,03,57,4.20
2010,11,14,03,58,2.90
2010,11,14,03,59,4.40
2010,11,14,04,00,2.80
2010,11,14,04,01,3.40
2010,11,14,04,02,4.10
2010,11,14,04,03,4.10
2010,11,14,04,04,4.50
2010,11,14,04,05,3.50
2010,11,14,04,06,5.00
2010,11,14,04,07,3.60
2010,11,14,04,08,3.80
2010,11,14,04,09,5.00
2010,11,14,04,10,5.10
2010,11,14,04,11,4.40
2010,11,14,04,12,2.60
2010,11,14,04,13,2.80
2010,11,14,04,14,3.00
2010,11,14,04,15,3.80
2010,11,14,04,16,3.10
2010,11,14,04,17,3.20
2010,11,14,04,18,2.70
2010,11,14,04,19,2.20
2010,11,14,04,20,4.30
2010,11,14,04,21,3.60
2010,11,14,04,22,3.70
2010,11,14,04,23,3.40
2010,11,14,04,24,3.10
2010,11,14,04,25,2.30
2010,11,14,04,26,3.20
2010,11,14,04,27,3.90
2010,11,14,04,28,4.80
2010,11,14,04,29,4.20
2010,11,14,04,30,3.70
2010,11,14,04,31,2.70
2010,11,14,04,32,2.90
2010,11,14,04,33,2.90
2010,11,14,04,34,3.00
2010,11,14,04,35,2.20
2010,11,14,04,36,0.90
2010,11,14,04,37,2.80
2010,11,14,04,38,3.90
2010,11,14,04,39,3.20
2010,11,14,04,40,2.10
2010,11,14,04,41,3.50
2010,11,14,04,42,0.10
2010,11,14,04,43,2.40
2010,11,14,04,44,2.00
2010,11,14,04,45,0.10
2010,11,14,04,46,0.70
2010,11,14,04,47,0.30
2010,11,14,04,48,1.80
2010,11,14,04,49,1.90
2010,11,14,04,50,1.80
2010,11,14,04,51,2.70
2010,11,14,04,52,2.90
2010,11,14,04,53,6.70
2010,11,14,04,54,4.30
2010,11,14,04,55,4.80
2010,11,14,04,56,4.80
2010,11,14,04,57,2.70
2010,11,14,04,58,1.00
2010,11,14,04,59,1.70
2010,11,14,05,00,4.50
2010,11,14,05,01,2.00
2010,11,14,05,02,3.00
2010,11,14,05,03,4.30
2010,11,14,05,04,2.80
2010,11,14,05,05,4.50
2010,11,14,05,06,3.80
2010,11,14,05,07,2.90
2010,11,14,05,08,2.70
2010,11,14,05,09,1.30
2010,11,14,05,10,1.00
2010,11,14,05,11,2.10
2010,11,14,05,12,0.30
2010,11,14,05,13,1.10
2010,11,14,05,14,1.10
2010,11,14,05,15,2.40
2010,11,14,05,16,0.80
2010,11,14,05,17,1.30
2010,11,14,05,18,1.10
2010,11,14,05,19,1.30
2010,11,14,05,20,1.00
2010,11,14,05,21,0.30
2010,11,14,05,22,2.00
2010,11,14,05,23,1.10
2010,11,14,05,24,3.30
2010,11,14,05,25,3.60
2010,11,14,05,26,3.50
2010,11,14,05,27,2.10
2010,11,14,05,28,2.10
2010,11,14,05,29,1.20
2010,11,14,05,30,2.00
2010,11,14,05,31,1.30
2010,11,14,05,32,1.10
2010,11,14,05,33,0.70
2010,11,14,05,34,0.60
2010,11,14,05,35,0.70
2010,11,14,05,36,1.00
2010,11,14,05,37,0.40
2010,11,14,05,38,0.00
2010,11,14,05,39,0.30
2010,11,14,05,40,0.10
2010,11,14,05,41,0.50
2010,11,14,05,42,0.50
2010,11,14,05,43,0.10
2010,11,14,05,44,1.70
2010,11,14,05,45,2.50
2010,11,14,05,46,1.30
2010,11,14,05,47,1.20
2010,11,14,05,48,0.40
2010,11,14,05,49,2.60
2010,11,14,05,50,2.10
2010,11,14,05,51,1.20
2010,11,14,05,52,0.10
2010,11,14,05,53,0.00
2010,11,14,05,54,0.00
2010,11,14,05,55,0.00
2010,11,14,05,56,0.10
2010,11,14,05,57,0.10
2010,11,14,05,58,0.00
2010,11,14,05,59,0.00
2010,11,14,06,00,0.00
2010,11,14,06,01,0.00
2010,11,14,06,02,0.00
2010,11,14,06,03,0.00
2010,11,14,06,04,1.30
2010,11,14,06,05,1.80
2010,11,14,06,06,1.10
2010,11,14,06,07,2.00
2010,11,14,06,08,1.30
2010,11,14,06,09,0.40
2010,11,14,06,10,1.60
2010,11,14,06,11,1.40
2010,11,14,06,12,1.10
2010,11,14,06,13,0.80
2010,11,14,06,14,0.00
2010,11,14,06,15,0.00
2010,11,14,06,16,0.00
2010,11,14,06,17,1.40
2010,11,14,06,18,2.60
2010,11,14,06,19,2.30
2010,11,14,06,20,0.80
2010,11,14,06,21,2.80
2010,11,14,06,22,1.10
2010,11,14,06,23,1.10
2010,11,14,06,24,0.00
2010,11,14,06,25,1.20
2010,11,14,06,26,0.90
2010,11,14,06,27,0.20
2010,11,14,06,28,0.40
2010,11,14,06,29,1.00
2010,11,14,06,30,2.10
2010,11,14,06,31,3.10
2010,11,14,06,32,2.70
2010,11,14,06,33,2.90
2010,11,14,06,34,2.00
2010,11,14,06,35,2.20
2010,11,14,06,36,3.10
2010,11,14,06,37,1.40
2010,11,14,06,38,1.30
2010,11,14,06,39,2.50
2010,11,14,06,40,2.70
2010,11,14,06,41,4.00
2010,11,14,06,42,5.50
2010,11,14,06,43,4.20
2010,11,14,06,44,4.50
2010,11,14,06,45,3.70
2010,11,14,06,46,2.50
2010,11,14,06,47,3.30
2010,11,14,06,48,3.80
2010,11,14,06,49,4.40
2010,11,14,06,50,3.10
2010,11,14,06,51,2.00
2010,11,14,06,52,2.20
2010,11,14,06,53,4.20
2010,11,14,06,54,4.70
2010,11,14,06,55,3.40
2010,11,14,06,56,1.60
2010,11,14,06,57,3.00
2010,11,14,06,58,1.60
2010,11,14,06,59,2.30
2010,11,14,07,00,0.00
2010,11,14,07,01,0.10
2010,11,14,07,02,0.00
2010,11,14,07,03,1.10
2010,11,14,07,04,1.70
2010,11,14,07,05,0.20
2010,11,14,07,06,0.00
2010,11,14,07,07,0.60
2010,11,14,07,08,0.60
2010,11,14,07,09,1.30
2010,11,14,07,10,1.80
2010,11,14,07,11,1.80
2010,11,14,07,12,2.10
2010,11,14,07,13,1.50
2010,11,14,07,14,1.30
2010,11,14,07,15,2.30
2010,11,14,07,16,2.10
2010,11,14,07,17,1.30
2010,11,14,07,18,1.00
2010,11,14,07,19,1.50
2010,11,14,07,20,2.40
2010,11,14,07,21,1.70
2010,11,14,07,22,1.30
2010,11,14,07,23,2.00
2010,11,14,07,24,1.50
2010,11,14,07,25,1.00
2010,11,14,07,26,1.60
2010,11,14,07,27,0.20
2010,11,14,07,28,1.50
2010,11,14,07,29,2.10
2010,11,14,07,30,2.30
2010,11,14,07,31,2.10
2010,11,14,07,32,3.30
2010,11,14,07,33,3.80
2010,11,14,07,34,1.80
2010,11,14,07,35,1.90
2010,11,14,07,36,1.60
2010,11,14,07,37,2.00
2010,11,14,07,38,2.30
2010,11,14,07,39,2.10
2010,11,14,07,40,1.90
2010,11,14,07,41,2.20
2010,11,14,07,42,1.10
2010,11,14,07,43,1.20
2010,11,14,07,44,0.10
2010,11,14,07,45,0.50
2010,11,14,07,46,1.90
2010,11,14,07,47,2.00
2010,11,14,07,48,1.80
2010,11,14,07,49,1.20
2010,11,14,07,50,1.20
2010,11,14,07,51,0.90
2010,11,14,07,52,0.60
2010,11,14,07,53,1.60
2010,11,14,07,54,2.30
2010,11,14,07,55,0.50
2010,11,14,07,56,0.20
2010,11,14,07,57,0.00
2010,11,14,07,58,0.00
2010,11,14,07,59,0.00
2010,11,14,08,00,0.00
2010,11,14,08,01,0.00
2010,11,14,08,02,0.00
2010,11,14,08,03,0.10
2010,11,14,08,04,0.60
2010,11,14,08,05,0.00
2010,11,14,08,06,0.00
2010,11,14,08,07,0.00
2010,11,14,08,08,0.30
2010,11,14,08,09,0.40
2010,11,14,08,10,0.70
2010,11,14,08,11,1.30
2010,11,14,08,12,1.20
2010,11,14,08,13,1.30
2010,11,14,08,14,1.70
2010,11,14,08,15,1.40
2010,11,14,08,16,1.20
2010,11,14,08,17,0.00
2010,11,14,08,18,0.40
2010,11,14,08,19,2.00
2010,11,14,08,20,2.30
2010,11,14,08,21,3.30
2010,11,14,08,22,2.90
2010,11,14,08,23,1.90
2010,11,14,08,24,2.50
2010,11,14,08,25,3.20
2010,11,14,08,26,1.30
2010,11,14,08,27,2.40
2010,11,14,08,28,2.80
2010,11,14,08,29,2.10
2010,11,14,08,30,2.30
2010,11,14,08,31,1.30
2010,11,14,08,32,1.90
2010,11,14,08,33,1.60
2010,11,14,08,34,1.50
2010,11,14,08,35,0.30
2010,11,14,08,36,0.00
2010,11,14,08,37,0.00
2010,11,14,08,38,0.00
2010,11,14,08,39,0.00
2010,11,14,08,40,0.00
2010,11,14,08,41,0.00
2010,11,14,08,42,0.00
2010,11,14,08,43,0.00
2010,11,14,08,44,0.00
2010,11,14,08,45,0.00
2010,11,14,08,46,0.00
2010,11,14,08,47,0.00
2010,11,14,08,48,0.00
2010,11,14,08,49,0.00
2010,11,14,08,50,0.00
2010,11,14,08,51,0.00
2010,11,14,08,52,0.00
2010,11,14,08,53,0.00
2010,11,14,08,54,0.00
2010,11,14,08,55,0.00
2010,11,14,08,56,0.00
2010,11,14,08,57,0.00
2010,11,14,08,58,0.00
2010,11,14,08,59,0.00
2010,11,14,09,00,0.00
2010,11,14,09,01,0.60
2010,11,14,09,02,1.90
2010,11,14,09,03,0.90
2010,11,14,09,04,0.80
2010,11,14,09,05,0.10
2010,11,14,09,06,0.00
2010,11,14,09,07,0.00
2010,11,14,09,08,0.00
2010,11,14,09,09,0.00
2010,11,14,09,10,0.00
2010,11,14,09,11,0.00
2010,11,14,09,12,0.00
2010,11,14,09,13,0.00
2010,11,14,09,14,0.00
2010,11,14,09,15,0.00
2010,11,14,09,16,0.10
2010,11,14,09,17,0.00
2010,11,14,09,18,1.30
2010,11,14,09,19,2.20
2010,11,14,09,20,1.50
2010,11,14,09,21,0.60
2010,11,14,09,22,2.30
2010,11,14,09,23,2.60
2010,11,14,09,24,1.30
2010,11,14,09,25,1.50
2010,11,14,09,26,2.00
2010,11,14,09,27,0.50
2010,11,14,09,28,0.70
2010,11,14,09,29,0.10
2010,11,14,09,30,0.70
2010,11,14,09,31,1.50
2010,11,14,09,32,1.20
2010,11,14,09,33,1.30
2010,11,14,09,34,0.70
2010,11,14,09,35,0.40
2010,11,14,09,36,1.20
2010,11,14,09,37,0.00
2010,11,14,09,38,0.10
2010,11,14,09,39,0.30
2010,11,14,09,40,0.30
2010,11,14,09,41,1.80
2010,11,14,09,42,1.40
2010,11,14,09,43,1.90
2010,11,14,09,44,0.80
2010,11,14,09,45,0.30
2010,11,14,09,46,1.40
2010,11,14,09,47,3.60
2010,11,14,09,48,3.30
2010,11,14,09,49,1.20
2010,11,14,09,50,1.00
2010,11,14,09,51,1.80
2010,11,14,09,52,0.70
2010,11,14,09,53,1.30
2010,11,14,09,54,1.30
2010,11,14,09,55,0.10
2010,11,14,09,56,0.00
2010,11,14,09,57,0.00
2010,11,14,09,58,0.00
2010,11,14,09,59,0.00
2010,11,14,10,00,0.00
2010,11,14,10,01,0.10
2010,11,14,10,02,0.00
2010,11,14,10,03,0.00
2010,11,14,10,04,0.20
2010,11,14,10,05,0.60
2010,11,14,10,06,0.00
2010,11,14,10,07,0.00
2010,11,14,10,08,0.10
2010,11,14,10,09,0.00
2010,11,14,10,10,0.00
2010,11,14,10,11,0.00
2010,11,14,10,12,0.00
2010,11,14,10,13,0.00
2010,11,14,10,14,0.10
2010,11,14,10,15,0.00
2010,11,14,10,16,1.30
2010,11,14,10,17,1.50
2010,11,14,10,18,1.60
2010,11,14,10,19,0.20
2010,11,14,10,20,0.60
2010,11,14,10,21,0.80
2010,11,14,10,22,0.30
2010,11,14,10,23,0.50
2010,11,14,10,24,0.10
2010,11,14,10,25,0.50
2010,11,14,10,26,1.00
2010,11,14,10,27,1.00
2010,11,14,10,28,2.00
2010,11,14,10,29,1.50
2010,11,14,10,30,0.00
2010,11,14,10,31,0.70
2010,11,14,10,32,0.90
2010,11,14,10,33,0.10
2010,11,14,10,34,0.70
2010,11,14,10,35,0.10
2010,11,14,10,36,1.70
2010,11,14,10,37,2.00
2010,11,14,10,38,1.10
2010,11,14,10,39,0.50
2010,11,14,10,40,0.40
2010,11,14,10,41,0.70
2010,11,14,10,42,0.20
2010,11,14,10,43,0.00
2010,11,14,10,44,0.20
2010,11,14,10,45,0.20
2010,11,14,10,46,0.10
2010,11,14,10,47,0.50
2010,11,14,10,48,0.40
2010,11,14,10,49,0.10
2010,11,14,10,50,0.20
2010,11,14,10,51,0.60
2010,11,14,10,52,0.10
2010,11,14,10,53,0.20
2010,11,14,10,54,0.10
2010,11,14,10,55,0.60
2010,11,14,10,56,0.20
2010,11,14,10,57,0.00
2010,11,14,10,58,0.80
2010,11,14,10,59,0.80
2010,11,14,11,00,2.60
2010,11,14,11,01,2.00
2010,11,14,11,02,3.00
2010,11,14,11,03,3.10
2010,11,14,11,04,3.80
2010,11,14,11,05,4.10
2010,11,14,11,06,4.50
2010,11,14,11,07,3.80
2010,11,14,11,08,3.10
2010,11,14,11,09,5.20
2010,11,14,11,10,5.50
2010,11,14,11,11,5.10
2010,11,14,11,12,3.40
2010,11,14,11,13,1.50
2010,11,14,11,14,2.30
2010,11,14,11,15,4.40
2010,11,14,11,16,4.50
2010,11,14,11,17,2.80
2010,11,14,11,18,4.10
2010,11,14,11,19,2.90
2010,11,14,11,20,2.80
2010,11,14,11,21,0.30
2010,11,14,11,22,0.40
2010,11,14,11,23,1.20
2010,11,14,11,24,3.20
2010,11,14,11,25,3.30
2010,11,14,11,26,1.80
2010,11,14,11,27,3.00
2010,11,14,11,28,4.40
2010,11,14,11,29,5.00
2010,11,14,11,30,4.70
2010,11,14,11,31,4.90
2010,11,14,11,32,4.80
2010,11,14,11,33,4.50
2010,11,14,11,34,3.70
2010,11,14,11,35,5.00
2010,11,14,11,36,6.00
2010,11,14,11,37,4.40
2010,11,14,11,38,3.40
2010,11,14,11,39,1.80
2010,11,14,11,40,3.20
2010,11,14,11,41,3.20
2010,11,14,11,42,4.00
2010,11,14,11,43,2.10
2010,11,14,11,44,2.40
2010,11,14,11,45,1.80
2010,11,14,11,46,1.50
2010,11,14,11,47,1.10
2010,11,14,11,48,2.60
2010,11,14,11,49,2.30
2010,11,14,11,50,3.20
2010,11,14,11,51,4.10
2010,11,14,11,52,2.30
2010,11,14,11,53,2.40
2010,11,14,11,54,2.30
2010,11,14,11,55,1.80
2010,11,14,11,56,1.90
2010,11,14,11,57,2.00
2010,11,14,11,58,2.90
2010,11,14,11,59,1.30
2010,11,14,12,00,1.10
2010,11,14,12,01,0.30
2010,11,14,12,02,0.70
2010,11,14,12,03,0.10
2010,11,14,12,04,0.20
2010,11,14,12,05,0.10
2010,11,14,12,06,0.60
2010,11,14,12,07,0.10
2010,11,14,12,08,0.00
2010,11,14,12,09,0.70
2010,11,14,12,10,0.10
2010,11,14,12,11,0.70
2010,11,14,12,12,0.20
2010,11,14,12,13,0.70
2010,11,14,12,14,0.10
2010,11,14,12,15,0.00
2010,11,14,12,16,0.10
2010,11,14,12,17,0.50
2010,11,14,12,18,0.50
2010,11,14,12,19,1.10
2010,11,14,12,20,0.20
2010,11,14,12,21,0.00
2010,11,14,12,22,0.00
2010,11,14,12,23,0.20
2010,11,14,12,24,0.10
2010,11,14,12,25,0.00
2010,11,14,12,26,0.00
2010,11,14,12,27,0.00
2010,11,14,12,28,0.00
2010,11,14,12,29,0.00
2010,11,14,12,30,0.00
2010,11,14,12,31,0.00
2010,11,14,12,32,0.10
2010,11,14,12,33,1.10
2010,11,14,12,34,2.00
2010,11,14,12,35,2.00
2010,11,14,12,36,1.90
2010,11,14,12,37,0.20
2010,11,14,12,38,0.20
2010,11,14,12,39,0.00
2010,11,14,12,40,1.10
2010,11,14,12,41,0.10
2010,11,14,12,42,0.30
2010,11,14,12,43,0.20
2010,11,14,12,44,0.00
2010,11,14,12,45,0.00
2010,11,14,12,46,0.00
2010,11,14,12,47,0.80
2010,11,14,12,48,0.10
2010,11,14,12,49,0.10
2010,11,14,12,50,0.00
2010,11,14,12,51,0.70
2010,11,14,12,52,1.70
2010,11,14,12,53,1.90
2010,11,14,12,54,0.80
2010,11,14,12,55,2.10
2010,11,14,12,56,3.00
2010,11,14,12,57,2.40
2010,11,14,12,58,1.70
2010,11,14,12,59,0.10
2010,11,14,13,00,1.50
2010,11,14,13,01,0.40
2010,11,14,13,02,2.50
2010,11,14,13,03,2.30
2010,11,14,13,04,2.80
2010,11,14,13,05,0.60
2010,11,14,13,06,1.20
2010,11,14,13,07,1.30
2010,11,14,13,08,2.80
2010,11,14,13,09,0.10
2010,11,14,13,10,0.00
2010,11,14,13,11,1.10
2010,11,14,13,12,0.80
2010,11,14,13,13,3.90
2010,11,14,13,14,4.90
2010,11,14,13,15,1.40
2010,11,14,13,16,3.70
2010,11,14,13,17,1.70
2010,11,14,13,18,3.90
2010,11,14,13,19,7.00
2010,11,14,13,20,7.40
2010,11,14,13,21,6.10
2010,11,14,13,22,5.40
2010,11,14,13,23,7.10
2010,11,14,13,24,7.60
2010,11,14,13,25,6.20
2010,11,14,13,26,1.90
2010,11,14,13,27,2.70
2010,11,14,13,28,2.20
2010,11,14,13,29,2.70
2010,11,14,13,30,3.30
2010,11,14,13,31,4.80
2010,11,14,13,32,3.50
2010,11,14,13,33,1.80
2010,11,14,13,34,1.90
2010,11,14,13,35,1.60
2010,11,14,13,36,4.10
2010,11,14,13,37,7.80
2010,11,14,13,38,5.70
2010,11,14,13,39,8.50
2010,11,14,13,40,6.10
2010,11,14,13,41,0.80
2010,11,14,13,42,0.70
2010,11,14,13,43,0.80
2010,11,14,13,44,1.70
2010,11,14,13,45,3.10
2010,11,14,13,46,3.50
2010,11,14,13,47,2.00
2010,11,14,13,48,2.80
2010,11,14,13,49,2.90
2010,11,14,13,50,0.20
2010,11,14,13,51,1.20
2010,11,14,13,52,0.90
2010,11,14,13,53,0.40
2010,11,14,13,54,2.30
2010,11,14,13,55,2.90
2010,11,14,13,56,3.10
2010,11,14,13,57,2.20
2010,11,14,13,58,0.50
2010,11,14,13,59,0.20
2010,11,14,14,00,0.10
2010,11,14,14,01,0.00
2010,11,14,14,02,0.00
2010,11,14,14,03,0.00
2010,11,14,14,04,0.20
2010,11,14,14,05,0.00
2010,11,14,14,06,0.10
2010,11,14,14,07,0.00
2010,11,14,14,08,0.00
2010,11,14,14,09,0.00
2010,11,14,14,10,0.00
2010,11,14,14,11,0.00
2010,11,14,14,12,0.40
2010,11,14,14,13,0.60
2010,11,14,14,14,0.10
2010,11,14,14,15,1.70
2010,11,14,14,16,0.80
2010,11,14,14,17,0.30
2010,11,14,14,18,0.00
2010,11,14,14,19,0.00
2010,11,14,14,20,0.20
2010,11,14,14,21,2.70
2010,11,14,14,22,1.80
2010,11,14,14,23,1.50
2010,11,14,14,24,1.00
2010,11,14,14,25,0.20
2010,11,14,14,26,0.00
2010,11,14,14,27,0.00
2010,11,14,14,28,0.00
2010,11,14,14,29,0.20
2010,11,14,14,30,0.20
2010,11,14,14,31,0.20
2010,11,14,14,32,0.00
2010,11,14,14,33,0.70
2010,11,14,14,34,0.60
2010,11,14,14,35,1.30
2010,11,14,14,36,0.50
2010,11,14,14,37,1.80
2010,11,14,14,38,1.50
2010,11,14,14,39,2.60
2010,11,14,14,40,3.50
2010,11,14,14,41,3.40
2010,11,14,14,42,3.90
2010,11,14,14,43,4.70
2010,11,14,14,44,5.40
2010,11,14,14,45,5.00
2010,11,14,14,46,6.60
2010,11,14,14,47,7.90
2010,11,14,14,48,6.40
2010,11,14,14,49,5.10
2010,11,14,14,50,6.10
2010,11,14,14,51,6.80
2010,11,14,14,52,7.30
2010,11,14,14,53,5.50
2010,11,14,14,54,6.50
2010,11,14,14,55,5.90
2010,11,14,14,56,2.60
2010,11,14,14,57,4.50
2010,11,14,14,58,4.80
2010,11,14,14,59,3.50
2010,11,14,15,00,3.50
2010,11,14,15,01,3.70
2010,11,14,15,02,5.70
2010,11,14,15,03,3.30
2010,11,14,15,04,1.90
2010,11,14,15,05,3.20
2010,11,14,15,06,1.50
2010,11,14,15,07,3.00
2010,11,14,15,08,2.10
2010,11,14,15,09,4.10
2010,11,14,15,10,4.70
2010,11,14,15,11,4.50
2010,11,14,15,12,4.10
2010,11,14,15,13,5.20
2010,11,14,15,14,6.40
2010,11,14,15,15,7.70
2010,11,14,15,16,5.50
2010,11,14,15,17,4.60
2010,11,14,15,18,4.50
2010,11,14,15,19,8.10
2010,11,14,15,20,8.30
2010,11,14,15,21,8.10
2010,11,14,15,22,8.00
2010,11,14,15,23,8.50
2010,11,14,15,24,12.70
2010,11,14,15,25,11.30
2010,11,14,15,26,10.30
2010,11,14,15,27,13.50
2010,11,14,15,28,12.30
2010,11,14,15,29,8.00
2010,11,14,15,30,8.50
2010,11,14,15,31,6.80
2010,11,14,15,32,6.90
2010,11,14,15,33,6.70
2010,11,14,15,34,6.30
2010,11,14,15,35,6.70
2010,11,14,15,36,9.60
2010,11,14,15,37,10.40
2010,11,14,15,38,12.00
2010,11,14,15,39,14.30
2010,11,14,15,40,15.90
2010,11,14,15,41,12.70
2010,11,14,15,42,12.90
2010,11,14,15,43,14.80
2010,11,14,15,44,12.50
2010,11,14,15,45,13.00
2010,11,14,15,46,11.10
2010,11,14,15,47,12.00
2010,11,14,15,48,13.90
2010,11,14,15,49,14.20
2010,11,14,15,50,9.80
2010,11,14,15,51,12.70
2010,11,14,15,52,11.10
2010,11,14,15,53,13.60
2010,11,14,15,54,12.50
2010,11,14,15,55,12.40
2010,11,14,15,56,10.90
2010,11,14,15,57,11.10
2010,11,14,15,58,15.60
2010,11,14,15,59,15.90
2010,11,14,16,00,13.60
2010,11,14,16,01,10.70
2010,11,14,16,02,12.80
2010,11,14,16,03,10.90
2010,11,14,16,04,8.80
2010,11,14,16,05,9.20
2010,11,14,16,06,11.50
2010,11,14,16,07,12.40
2010,11,14,16,08,13.60
2010,11,14,16,09,16.30
2010,11,14,16,10,14.10
2010,11,14,16,11,14.50
2010,11,14,16,12,12.10
2010,11,14,16,13,9.30
2010,11,14,16,14,13.20
2010,11,14,16,15,15.10
2010,11,14,16,16,13.30
2010,11,14,16,17,9.10
2010,11,14,16,18,12.50
2010,11,14,16,19,16.70
2010,11,14,16,20,12.20
2010,11,14,16,21,10.90
2010,11,14,16,22,10.80
2010,11,14,16,23,8.40
2010,11,14,16,24,5.40
2010,11,14,16,25,6.90
2010,11,14,16,26,3.50
2010,11,14,16,27,4.00
2010,11,14,16,28,5.20
2010,11,14,16,29,8.80
2010,11,14,16,30,8.40
2010,11,14,16,31,6.60
2010,11,14,16,32,8.20
2010,11,14,16,33,7.50
2010,11,14,16,34,9.20
2010,11,14,16,35,9.10
2010,11,14,16,36,8.90
2010,11,14,16,37,12.00
2010,11,14,16,38,10.40
2010,11,14,16,39,10.60
2010,11,14,16,40,9.70
2010,11,14,16,41,10.10
2010,11,14,16,42,10.60
2010,11,14,16,43,11.70
2010,11,14,16,44,9.20
2010,11,14,16,45,8.30
2010,11,14,16,46,7.60
2010,11,14,16,47,10.10
2010,11,14,16,48,8.30
2010,11,14,16,49,7.30
2010,11,14,16,50,10.10
2010,11,14,16,51,8.70
2010,11,14,16,52,8.90
2010,11,14,16,53,11.90
2010,11,14,16,54,12.20
2010,11,14,16,55,14.80
2010,11,14,16,56,8.70
2010,11,14,16,57,7.80
2010,11,14,16,58,6.90
2010,11,14,16,59,8.90
2010,11,14,17,00,9.70
2010,11,14,17,01,10.40
2010,11,14,17,02,12.10
2010,11,14,17,03,10.10
2010,11,14,17,04,7.60
2010,11,14,17,05,10.40
2010,11,14,17,06,10.70
2010,11,14,17,07,10.70
2010,11,14,17,08,13.60
2010,11,14,17,09,12.10
2010,11,14,17,10,10.60
2010,11,14,17,11,10.10
2010,11,14,17,12,10.00
2010,11,14,17,13,7.50
2010,11,14,17,14,9.50
2010,11,14,17,15,8.10
2010,11,14,17,16,8.00
2010,11,14,17,17,6.40
2010,11,14,17,18,7.50
2010,11,14,17,19,7.00
2010,11,14,17,20,6.40
2010,11,14,17,21,12.20
2010,11,14,17,22,10.50
2010,11,14,17,23,9.50
2010,11,14,17,24,9.30
2010,11,14,17,25,11.00
2010,11,14,17,26,7.80
2010,11,14,17,27,7.70
2010,11,14,17,28,12.90
2010,11,14,17,29,13.10
2010,11,14,17,30,14.20
2010,11,14,17,31,10.30
2010,11,14,17,32,7.10
2010,11,14,17,33,7.60
2010,11,14,17,34,7.70
2010,11,14,17,35,8.10
2010,11,14,17,36,6.90
2010,11,14,17,37,7.40
2010,11,14,17,38,8.50
2010,11,14,17,39,5.50
2010,11,14,17,40,4.60
2010,11,14,17,41,8.90
2010,11,14,17,42,7.60
2010,11,14,17,43,4.60
2010,11,14,17,44,6.40
2010,11,14,17,45,8.50
2010,11,14,17,46,3.70
2010,11,14,17,47,6.80
2010,11,14,17,48,4.50
2010,11,14,17,49,4.20
2010,11,14,17,50,3.10
2010,11,14,17,51,2.50
2010,11,14,17,52,4.00
2010,11,14,17,53,3.80
2010,11,14,17,54,3.80
2010,11,14,17,55,4.60
2010,11,14,17,56,5.10
2010,11,14,17,57,4.10
2010,11,14,17,58,2.60
2010,11,14,17,59,4.30
2010,11,14,18,00,5.30
2010,11,14,18,01,3.90
2010,11,14,18,02,4.50
2010,11,14,18,03,5.80